Location: *
(50.5492°N, 7.7469°E)
Time: 04:53:46
(UTC+00:00)

STARLINK-33 - Pass Details

Date: 21 October 2019
Orbit: 548 x 551 km, 53.0° (Epoch: 14 November)

Event Time Altitude Azimuth Distance (km) Brightness Sun altitude
Rises 18:29:07 0° 283° (WNW) 2,719 8.8 -20.3°
Reaches altitude 10° 18:31:22 10° 286° (WNW) 1,825 7.4 -20.6°
Maximum altitude 18:35:29 65° 9° (N) 605 3.7 -21.3°
Enters shadow 18:35:54 61° 44° (NE) 629 3.6 -21.3°
